Simultaneous Nadir Overpasses (SNOs) Predictions

Prediction of SNOs between NOAA-19 and METOP-C Satellite Orbit:

Table of predicted SNOs for the next 14.0 days since TLE Epoch: 6/29/2024
Index Date (NOAA-19) Time (NOAA-19) Lat,Lon (NOAA-19) SZA (NOAA-19 ) Date (METOP-C) Time (METOP-C) Lat,Lon (METOP-C) SZA (METOP-C ) Distance(km) Time Diff (sec)
1 07/07/2024 17:06:47 78.90, -63.27 56.65 07/07/2024 17:07:49 78.90, -63.30 56.65 0.65 62
2 07/07/2024 17:57:41 -78.97, 104.49 123.27 07/07/2024 17:58:29 -78.98, 104.56 123.25 1.77 48
3 07/07/2024 18:48:39 79.10, -87.25 56.92 07/07/2024 18:49:05 79.10, -87.24 56.92 0.30 26
4 07/07/2024 19:39:33 -79.17, 80.52 123.00 07/07/2024 19:39:45 -79.18, 80.63 122.98 2.65 12
5 07/07/2024 20:30:32 79.26,-111.45 57.14 07/07/2024 20:30:22 79.26,-111.40 57.15 1.21 10
6 07/07/2024 21:21:25 -79.35, 56.61 122.73 07/07/2024 21:21:02 -79.34, 56.48 122.75 3.06 23
7 07/07/2024 22:12:25 79.41,-135.61 57.37 07/07/2024 22:11:39 79.42,-135.52 57.37 2.10 46



Historial Predications of SNOs between NOAA-19 and METOP-C
